Location: Cheyres
(46.8153°N, 6.7877°E)
Time: 13:31:36
(UTC+00:00)

Daily predictions for brighter satellites

Satellite Brightness Start Highest point End
(mag) Time Altitude Azimuth Time Altitude Azimuth Time Altitude Azimuth
BREEZE-M DEB (TANK) 3.9 19:24:49 10° W 19:29:05 74° S 19:36:27 10° ESE
Cosmos 1666 Rocket 4.4 19:26:13 10° N 19:30:16 35° ENE 19:34:16 10° SE
USA 307 4.2 19:29:58 10° NW 19:33:56 36° NNE 19:37:54 10° E
Cosmos 968 Rocket 3.9 19:32:12 10° SSW 19:37:27 72° WNW 19:42:41 10° NNE
NOSS 3-3 (A) 4.3 19:32:58 10° S 19:38:14 40° ESE 19:44:08 10° NE
NOSS 3-3 (C) 4.3 19:33:06 10° S 19:38:21 39° ESE 19:44:14 10° NE
ATLAS 2AS CENTAUR R/B 4.4 19:34:43 10° NW 19:41:06 28° NNE 19:47:06 10° E
Intercosmos 24 3.7 19:37:30 10° S 19:41:07 58° E 19:44:41 10° NNE
Cosmos 1354 Rocket 4.2 19:36:32 10° S 19:41:35 51° ESE 19:46:40 10° NNE
S3M 4.0 19:37:16 10° S 19:43:38 76° E 19:49:58 10° NNE
Sich 1 3.0 19:40:11 10° N 19:44:33 80° E 19:48:54 10° SSE
SJ 16-02 3.3 19:42:53 10° ESE 19:44:40 12° E 19:46:26 10° ENE
USA 245 4.5 19:44:17 10° ENE 19:44:45 10° ENE 19:45:13 10° NE
OBJECT-B 2.2 19:43:32 10° SSW 19:46:34 37° W 19:49:39 10° NNW
USA 308 4.0 19:43:34 10° NW 19:47:37 39° NNE 19:51:40 10° E
SPOT 1/Viking Rocket 4.4 19:43:08 10° SE 19:47:50 36° ENE 19:52:33 10° N
Cosmos 2315 Rocket 4.4 19:43:26 10° SSE 19:49:27 46° E 19:55:30 10° NNE
Cosmos 1500 4.3 19:50:08 10° NNE 19:53:25 28° ENE 19:56:07 13° SE
BREEZE M DEB (TANK) 2.8 19:50:39 10° W 19:56:57 58° N 19:59:25 10° E
Terra 3.8 19:54:44 10° E 19:57:33 16° ENE 20:00:22 10° NNE
Cosmos 2082 Rocket 3.6 19:54:38 10° N 19:59:17 26° NE 20:03:54 10° ESE
OE (NEXTSAT) 4.4 19:57:51 10° W 20:01:17 66° SSW 20:04:07 14° ESE
Cosmos 1151 Rocket 3.2 19:57:46 10° S 20:02:00 53° E 20:06:18 10° NNE
SPOT 3 Rocket 3.6 19:57:12 10° SSE 20:02:19 74° ENE 20:07:29 10° N
X-37B 1.4 19:59:36 10° W 20:02:37 38° SSW 20:04:43 17° SE
CREW DRAGON DEMO-1 DEB 3.7 20:00:24 10° NW 20:02:54 36° NNE 20:05:17 11° E
SPOT 5 4.4 19:59:20 11° ESE 20:03:10 26° ENE 20:07:27 10° N
Cosmos 1437 Rocket 4.1 19:59:28 10° SW 20:03:10 42° WNW 20:06:59 10° N
COSMOS 2406 3.7 20:00:32 10° NNW 20:06:01 47° ENE 20:10:34 15° SE
Cosmos 2084 3.4 20:02:26 10° SSW 20:06:28 54° SE 20:10:36 10° NE
Resurs 01 Rocket 1.6 20:02:32 10° SSE 20:06:59 89° ENE 20:11:27 10° NNW
USA 290 3.6 20:05:12 10° NW 20:08:13 36° WSW 20:11:11 10° S
Cosmos 1933 3.8 20:09:42 10° SSW 20:13:42 62° W 20:17:43 10° N
Cosmos 773 Rocket 4.0 20:13:04 10° NNW 20:18:25 82° ENE 20:22:41 16° SSE
MetOp-B 4.1 20:15:10 12° SSE 20:20:05 82° ENE 20:25:29 10° NNW
Cosmos 1271 Rocket 4.2 20:19:16 18° ESE 20:20:36 21° E 20:23:41 10° NE
Cosmos 2278 Rocket 2.5 20:19:22 10° S 20:24:42 44° ESE 20:30:03 10° NE
Spot 2 Rocket 3.7 20:22:06 18° SE 20:25:46 56° ENE 20:30:43 10° N
Cosmos 1602 4.2 20:22:08 10° NNW 20:25:58 61° W 20:29:33 11° S
BREEZE-M DEB (TANK) 2.1 20:24:18 10° WNW 20:26:27 43° N 20:27:56 16° ENE
Cosmos 1782 2.9 20:23:22 10° SSW 20:27:22 80° W 20:31:22 10° N
Landsat 7 3.9 20:23:02 12° S 20:27:26 76° WSW 20:32:13 10° NNW
USA 305 3.3 20:24:01 10° NW 20:28:14 58° NNE 20:31:23 17° ESE
IGS 5A 3.9 20:24:31 11° S 20:28:25 61° W 20:32:32 10° NNW
GPS 2-04 Rocket1 4.5 20:26:15 10° SSW 20:28:41 16° S 20:28:41 16° S
Cosmos 1844 Rocket 4.4 20:24:07 10° WSW 20:29:14 36° NW 20:34:25 10° NNE
Cosmos 1242 Rocket 3.9 20:26:38 10° SW 20:30:02 40° WNW 20:33:24 10° N
Cosmos 1515 Rocket 3.8 20:29:37 18° SSE 20:32:43 51° E 20:36:59 10° NNE
ERS-1 Rocket 3.5 20:30:20 20° SE 20:33:26 44° ENE 20:38:13 10° N
BREEZE-M DEB (TANK) 4.2 20:26:17 10° WNW 20:33:44 35° SW 20:35:39 20° S
CZ-4C R/B 3.0 20:30:22 10° NW 20:37:37 89° SW 20:43:47 20° SE
Cosmos 1633 Rocket 3.7 20:35:27 10° NNW 20:39:45 55° W 20:43:38 13° S
Meteor 1-11 Rocket 4.4 20:38:51 10° N 20:44:35 45° ENE 20:47:53 23° SE
deb Kosmos-1763 4.0 20:43:06 10° NNW 20:46:39 65° ENE 20:47:57 35° SE
ATLAS 5 CENTAUR R/B 3.4 20:41:30 10° NW 20:46:47 37° WSW 20:51:47 14° S
USA 306 3.0 20:43:20 10° WNW 20:47:37 72° NNE 20:49:58 25° ESE
Cosmos 1812 2.6 20:47:18 21° S 20:49:48 84° E 20:53:42 10° N
Cosmos 1328 Rocket 4.1 20:45:29 10° SSW 20:49:51 61° WNW 20:54:15 10° N
SWARM A 4.2 20:47:51 10° N 20:51:11 78° W 20:52:43 29° S
Cosmos 1777 Rocket 4.0 20:46:27 10° SSW 20:51:39 86° WNW 20:56:54 10° NNE
Cosmos 1470 Rocket 3.8 20:47:36 10° NNW 20:52:06 71° W 20:55:01 21° S
Cosmos 1340 Rocket 4.5 20:51:15 10° NNE 20:54:23 21° ENE 20:55:28 19° E
ARIANE 5 R/B 2.5 20:52:22 26° SSE 20:54:46 86° WSW 20:59:08 10° NNW
CARTOSAT-1 3.5 20:56:43 28° S 20:58:57 85° WSW 21:03:18 10° NNW
Cosmos 1666 2.5 20:55:23 10° N 20:59:08 82° E 21:00:28 38° SSE
Cosmos 1833 Rocket 2.8 20:58:15 10° NNW 21:03:52 69° WSW 21:07:04 26° S
Meteor 1-5 Rocket 4.2 20:59:43 10° NNW 21:05:06 73° W 21:08:22 24° S
Cosmos 1933 Rocket 3.6 21:02:00 10° NNW 21:06:20 77° W 21:08:25 30° S
BREEZE-M R/B 2.8 21:04:03 10° W 21:06:24 45° N 21:07:49 22° ENE
Cosmos 2154 Rocket 4.2 21:00:15 10° N 21:06:30 57° ENE 21:09:42 29° SE
Cosmos 923 Rocket 4.3 21:02:41 10° NNW 21:07:51 54° ENE 21:10:12 31° SE
Cosmos 1898 Rocket 4.5 21:07:15 27° ESE 21:08:05 28° E 21:12:34 10° NE
Meteor 1-10 Rocket 4.1 21:05:30 22° S 21:09:14 77° E 21:14:55 10° NNE
Cosmos 1536 3.4 21:05:48 10° N 21:09:40 42° ENE 21:10:33 36° ESE
Cosmos 2184 Rocket 3.9 21:07:43 10° N 21:13:59 90° ENE 21:17:33 27° S
Cosmos 1743 4.1 21:10:45 10° NNE 21:13:59 25° ENE 21:14:28 25° E
USA 307 2.8 21:09:57 10° WNW 21:14:15 84° SSW 21:15:37 43° SE
H-2A R/B 3.6 21:13:14 10° NNE 21:17:22 55° E 21:18:18 44° SSE
Cosmos 2074 Rocket 4.0 21:12:10 10° N 21:18:30 82° W 21:22:13 26° S
NOSS 3-4 (A) 3.8 21:12:50 10° NW 21:19:50 90° SSW 21:24:07 29° SE
NOSS 3-4 (C) 3.8 21:12:56 10° NW 21:19:56 90° ENE 21:24:12 30° SE
Cosmos 990 Rocket 4.4 21:20:01 36° SE 21:21:22 44° ESE 21:26:20 10° NNE
SJ 16-02 1.5 21:19:30 19° SSW 21:22:34 74° WNW 21:27:02 10° NNE
Nadezhda 1 Rocket 4.0 21:19:52 29° S 21:23:15 69° E 21:29:27 10° NNE
Cosmos 2297 4.4 21:22:46 32° SE 21:23:42 34° ESE 21:28:46 10° NE
Cosmos 1733 Rocket 4.3 21:23:25 10° NNE 21:27:06 27° ENE 21:27:49 25° E
USA 308 2.9 21:23:34 10° WNW 21:27:51 69° SW 21:28:43 52° SSE
ATLAS 2AS CENTAUR R/B 2.9 21:25:58 10° NW 21:33:25 71° NE 21:37:04 30° SE
Terra 1.8 21:33:01 40° S 21:34:43 76° WSW 21:39:30 10° NNW
Iridium 4 Rocket 4.2 21:30:58 21° SSW 21:34:53 61° W 21:40:46 10° N
USA 215 4.5 21:30:27 10° ENE 21:36:26 40° NNE 21:42:25 10° NW
Cosmos 1544 3.1 21:33:24 10° N 21:36:59 59° E 21:37:03 59° E
SPOT 5 3.6 21:38:33 29° SSW 21:40:53 50° W 21:46:02 10° NNW
Cosmos 1610 Rocket 4.4 21:35:12 10° N 21:41:22 85° W 21:44:05 36° S
ERBS 4.3 21:39:13 10° NW 21:41:59 24° NNE 21:43:16 19° ENE
Cosmos 2082 Rocket 2.3 21:38:16 10° NNW 21:43:49 64° WSW 21:45:50 39° S
Resurs 01 Rocket 4.5 21:43:28 10° W 21:44:06 10° W 21:44:45 10° WNW
Cosmos 158 Rocket 4.3 21:40:36 10° NNW 21:45:21 53° WSW 21:46:50 38° SSW
Cosmos 2112 Rocket 4.0 21:41:12 10° NNW 21:46:34 74° ENE 21:48:11 46° SE
Cosmos 2228 Rocket 3.4 21:45:34 35° SW 21:47:16 62° W 21:51:43 10° N
Cosmos 44 3.6 21:44:50 10° NNW 21:50:17 69° NE 21:51:59 42° ESE
Cosmos 1271 Rocket 4.3 21:54:21 20° WSW 21:56:23 33° WNW 22:00:03 10° N
Cosmos 2084 Rocket 4.0 21:54:08 10° NNW 21:58:18 52° NE 21:59:14 43° E
BREEZE-M DEB (TANK) 4.4 21:54:54 10° W 22:01:18 38° NNW 22:03:26 14° NE
Meteor 1-27 Rocket 4.1 21:58:45 28° SSW 22:01:52 66° WNW 22:07:46 10° N
Cosmos 2341 Rocket 4.0 21:55:29 10° N 22:01:55 76° E 22:04:08 43° SSE
Cosmos 1515 4.0 22:04:29 54° ENE 22:04:29 54° ENE 22:07:46 10° NNE
USA 305 4.0 22:04:12 10° WNW 22:07:27 32° WSW 22:07:27 32° WSW
Cosmos 2278 Rocket 3.7 22:03:48 10° WSW 22:08:55 34° NW 22:14:04 10° NNE
Cosmos 1937 Rocket 3.4 22:09:32 58° SSE 22:10:18 68° ESE 22:15:27 10° NNE
Cosmos 1862 Rocket 3.8 22:10:39 53° E 22:10:39 53° E 22:14:46 10° NNE
Milstar 3 4.5 22:03:27 10° WSW 22:10:46 23° SSW 22:10:46 23° SSW
SL-24 R/B - RUBIN 2 3.8 22:06:46 10° NW 22:12:17 83° SW 22:13:07 62° SSE
Cosmos 1680 Rocket 3.8 22:08:27 10° NNW 22:13:42 59° WSW 22:14:52 47° SSW
Cosmos 1943 Rocket 2.2 22:13:55 54° SSE 22:14:54 63° ESE 22:20:27 10° NNE
Cosmos 2218 Rocket 4.1 22:10:08 10° N 22:16:24 66° ENE 22:18:16 45° SE
Cosmos 2369 Rocket 2.9 22:17:10 36° ESE 22:17:10 36° ESE 22:22:16 10° NE
Centaur D AC-29 4.5 21:41:37 10° WSW 22:18:41 28° SSW 22:20:13 27° S
Meteor 1-19 Rocket 4.1 22:19:24 55° SE 22:20:14 64° E 22:25:35 10° NNE
Gbstr 26 Del rocket 4.1 22:13:00 10° WNW 22:20:28 80° NNE 22:23:48 30° ESE
Cosmos 1238 Rocket 3.7 22:17:42 10° N 22:23:57 88° WSW 22:25:13 56° S
Cosmos 858 Rocket 4.4 22:24:20 60° SSW 22:25:20 86° ESE 22:30:36 10° NNE
CZ-4C R/B 4.4 22:19:50 10° WNW 22:25:44 25° WSW 22:28:58 20° SW
Meteor 2-9 Rocket 4.2 22:21:31 10° N 22:27:21 81° ENE 22:28:36 56° SSE
Okean 1 3.3 22:29:36 76° NNW 22:29:36 76° NNW 22:33:23 10° N
Okean 1-7 4.3 22:31:00 28° ENE 22:31:00 28° ENE 22:34:09 10° NNE
Cosmos 1340 Rocket 3.9 22:27:11 10° NNW 22:30:57 36° W 22:31:03 36° W
Cosmos 1818 3.5 22:27:45 10° NW 22:33:16 85° SW 22:34:12 63° SSE
Cosmos 1707 Rocket 4.2 22:32:59 43° WSW 22:33:43 47° WNW 22:38:00 10° N
DNEPR-1 R/B 4.0 22:34:45 48° SW 22:36:27 89° SE 22:41:26 10° NE
SL-8 Rocket 4.0 22:33:27 10° NNW 22:39:47 74° W 22:41:32 49° SSW
ALOS 2 2.8 22:41:06 60° E 22:41:12 61° ENE 22:45:32 10° N
Meteor 2-4 Rocket 3.7 22:47:04 57° SE 22:47:55 65° E 22:53:31 10° NNE
Cosmos 1743 4.4 22:46:29 10° NNW 22:49:32 25° W 22:49:32 25° W
Cosmos 1898 Rocket 4.4 22:47:29 27° WSW 22:49:56 44° WNW 22:55:04 10° NNE
SL-27 R/B 4.3 22:51:36 10° N 22:53:51 24° NE 22:53:51 24° NE
BREEZE-M DEB (TANK) 4.2 22:41:21 10° WNW 22:56:54 85° SSW 22:58:40 45° ESE
SL-08 R/B 4.5 22:50:45 10° N 22:56:59 76° E 22:58:29 54° SSE
Cosmos 1975 3.4 22:57:06 10° NNW 23:00:28 52° WNW 23:00:28 52° WNW
SJ 16-02 4.3 23:00:47 10° WNW 23:02:00 11° NW 23:03:13 10° NNW
RESURS DK-1 2.9 22:59:29 10° NNW 23:03:31 52° NE 23:03:31 52° NE
Cosmos 2150 Rocket 4.4 23:04:29 50° ESE 23:04:33 50° ESE 23:09:40 10° NNE
Cosmos 1733 Rocket 4.3 23:01:07 10° NNW 23:04:54 30° W 23:04:55 30° W
Cosmos 1461 3.2 23:07:22 70° W 23:07:41 74° NW 23:12:20 10° NNE
Cosmos 372 Rocket 4.0 23:07:02 60° WSW 23:07:47 70° WNW 23:12:53 10° NNE
Cosmos 1833 4.4 23:02:11 10° NNW 23:07:55 65° ENE 23:09:23 48° ESE
Cosmos 2242 Rocket 3.6 23:09:01 78° NE 23:09:01 78° NE 23:13:15 10° N
SeaSat 1 3.5 23:04:42 10° NE 23:08:32 31° E 23:08:32 31° E
ISS -1.1 23:18:16 15° ENE 23:18:16 15° ENE 23:18:54 10° ENE
Cosmos 468 4.4 23:12:36 10° NNW 23:17:56 85° ENE 23:18:27 72° SE
USA 215 3.4 23:13:57 18° ESE 23:18:55 72° NNE 23:25:26 10° NW
Cosmos 494 Rocket 4.1 23:14:14 10° NNW 23:19:25 67° ENE 23:20:07 59° ESE
Cosmos 1908 Rocket 3.9 23:15:32 10° NNW 23:19:43 56° W 23:19:43 56° W
Okean 2 Rocket 4.3 23:19:39 10° N 23:23:35 31° ENE 23:23:56 31° E
ATLAS 2AS CENTAUR R/B 3.7 23:17:45 10° NW 23:23:43 29° WSW 23:24:29 28° WSW
Nimbus 7 Rocket 4.3 23:19:32 10° NNE 23:25:28 87° ESE 23:26:37 61° SSW
Cosmos 1867 3.4 23:25:56 73° S 23:26:21 78° ESE 23:31:51 10° NE
Cosmos 1125 Rocket 3.6 23:26:49 60° ESE 23:26:57 61° ESE 23:32:07 10° NNE
Cosmos 44 Rocket 4.2 23:24:19 10° NNW 23:29:24 48° NE 23:31:23 32° E
Cosmos 1378 4.0 23:34:53 48° NNE 23:34:53 48° NNE 23:37:40 10° N
ATLAS CENTAUR R/B 2.4 23:38:29 34° NE 23:38:29 34° NE 23:40:49 10° NE
Cosmos 2344 4.3 23:30:32 10° NW 23:39:45 84° NE 23:51:08 15° SE
Cosmos 1821 Rocket 4.1 23:33:39 10° NNW 23:40:02 71° W 23:41:25 54° SSW
Cosmos 1934 Rocket 4.0 23:34:31 10° N 23:40:41 69° E 23:42:10 51° SE
USA 281 4.4 23:36:59 12° ESE 23:42:22 38° NE 23:48:19 10° NNW
Cosmos 1703 Rocket 4.4 23:48:52 41° WNW 23:48:54 41° WNW 23:53:05 10° N
Okean 3 3.6 23:50:46 69° NW 23:50:46 69° NW 23:54:41 10° N
Cosmos 1782 Rocket 4.2 23:47:27 10° NNW 23:51:22 46° WNW 23:51:22 46° WNW
Lacrosse 5 3.1 23:54:51 29° ESE 23:54:51 29° ESE 23:58:17 10° ENE
